Wind_Speed
20 20 20 21 21 21 20 18 18 19 19 18 17 17 17 17 16 16 15 15 15 15 15 15 15 15 15 15 16 16 17 17 17 18 18 18 17 17 17 17 17 16 17 17 17 17 18 17 17
21 21 22 22 22 22 21 19 19 20 20 20 19 19 18 18 17 17 17 17 17 17 17 17 17 17 17 17 18 18 18 19 19 20 20 19 19 19 18 18 18 19 18 19 19 19 19 20 19
22 22 22 23 23 23 22 21 21 22 21 21 20 20 20 19 19 18 19 19 18 19 19 19 19 19 19 20 20 20 20 21 21 22 21 21 21 20 20 20 20 20 20 20 20 21 21 21 22
23 24 24 24 23 22 22 22 22 22 22 22 22 22 21 21 21 20 20 20 20 21 21 21 21 21 21 22 22 22 22 22 22 22 22 22 22 22 22 22 22 23 23 23 23 23 23 23 23
24 25 25 24 24 23 23 23 23 23 23 23 23 23 23 23 23 23 22 22 22 22 22 22 23 23 23 24 23 24 25 23 23 24 24 24 24 24 24 24 25 25 25 25 25 25 26 25 25
25 25 25 25 24 24 23 24 24 25 25 25 25 24 25 24 24 24 24 23 23 24 24 24 25 25 25 25 26 26 26 25 25 25 25 26 26 26 26 27 27 27 27 28 28 28 28 28 27
26 25 25 25 25 25 24 25 25 26 26 26 26 27 27 26 26 26 26 25 25 26 26 26 27 27 27 27 27 27 28 28 28 28 27 28 28 28 29 29 29 30 30 30 30 30 30 31 30
27 27 26 25 25 25 24 25 26 27 27 28 28 28 28 28 27 27 28 27 27 28 28 28 29 29 29 29 30 30 30 30 30 30 30 30 30 30 31 32 32 32 32 32 32 32 31 32 32
27 27 26 26 26 26 25 25 26 27 27 28 28 29 29 29 29 28 29 30 30 30 30 30 30 31 31 31 31 31 31 31 31 31 32 31 32 32 33 34 34 33 33 33 34 34 34 33 34
27 27 26 26 27 27 27 27 27 28 28 28 29 30 30 30 30 31 30 31 32 32 31 32 32 32 32 32 32 32 32 32 32 32 33 32 33 33 34 35 35 34 34 35 35 35 36 36 36
27 27 27 27 28 28 29 28 28 29 29 29 30 31 32 32 32 32 32 32 32 32 32 32 33 33 33 33 33 33 33 33 33 34 34 34 34 34 35 36 36 36 35 36 36 36 37 37 37
26 26 27 27 28 29 29 29 29 30 30 31 31 32 32 33 33 33 33 33 32 33 33 33 34 34 34 33 33 33 34 34 34 34 34 35 34 34 35 35 36 37 36 36 36 37 38 38 38
26 26 26 27 27 28 29 30 30 30 31 32 33 33 33 33 34 34 34 34 34 34 33 34 34 34 34 34 34 34 34 35 35 35 35 35 35 35 35 36 36 37 38 37 37 38 39 39 39
26 26 25 26 27 28 29 29 30 30 31 32 32 33 33 34 34 34 35 34 34 35 35 34 34 34 35 34 35 35 35 35 35 36 36 36 37 37 37 37 37 37 38 38 38 38 40 40 40
25 26 26 25 26 27 29 29 29 30 31 32 32 33 33 34 34 34 35 36 36 36 35 35 35 35 35 35 35 36 36 36 35 36 37 37 38 39 39 39 39 38 38 39 39 40 40 41 41
26 26 27 26 26 27 28 29 29 29 30 31 32 32 33 34 34 35 35 36 37 36 36 36 36 36 36 35 36 36 37 37 36 36 37 38 39 40 40 40 41 40 39 39 39 39 40 42 43
25 26 27 27 27 28 28 29 29 30 30 31 31 32 32 33 34 35 35 36 37 37 37 37 37 37 37 37 37 37 37 37 37 36 37 38 39 39 40 41 41 40 41 41 41 41 42 42 43
25 26 27 27 27 28 29 29 29 30 30 31 32 32 32 33 33 34 35 36 37 37 37 37 37 38 38 37 37 37 38 38 38 38 38 38 39 40 41 42 42 42 42 43 43 43 43 43 43
26 27 27 27 28 28 28 29 29 30 31 32 32 33 33 34 34 34 35 36 36 37 37 37 37 37 38 38 37 37 38 38 38 38 39 39 39 40 41 43 43 43 43 43 44 44 44 44 44
26 27 27 27 28 29 29 29 30 30 32 32 33 33 33 34 34 34 35 35 36 36 36 36 36 36 37 38 38 38 38 39 39 39 39 40 40 41 41 42 44 45 45 45 45 45 44 45 44
27 27 27 28 29 30 30 30 31 31 32 33 33 34 34 34 34 34 34 35 35 35 36 37 37 36 37 38 38 39 39 39 39 39 39 40 41 42 43 44 44 45 46 46 46 46 45 45 45
27 27 28 29 30 30 31 32 30 31 32 32 33 33 34 34 34 34 34 34 35 36 36 37 37 37 38 38 38 39 39 39 40 40 40 41 42 43 44 44 44 45 45 46 45 45 45 45 45
27 27 28 29 30 30 30 32 31 30 30 31 31 32 33 34 35 34 34 35 35 35 36 37 37 37 38 39 38 39 40 40 40 41 42 43 43 43 44 44 44 44 45 45 45 45 46 46 45
27 27 28 28 29 30 29 31 31 29 29 29 30 31 32 32 33 34 34 35 35 35 36 37 37 38 38 39 40 40 41 41 41 42 42 43 44 44 44 44 44 44 45 46 46 46 46 45 45
25 26 28 28 29 29 28 30 29 28 28 28 29 30 31 32 32 33 34 34 35 36 36 37 37 38 38 39 40 41 42 42 42 43 43 43 44 44 44 43 44 44 44 45 45 45 45 45 45
25 26 27 29 30 29 29 30 28 27 28 28 29 30 30 31 32 33 34 34 34 35 36 36 37 38 38 39 40 41 42 43 43 43 42 42 42 42 42 42 42 43 43 42 43 43 43 43 44
25 26 27 29 29 29 29 29 29 28 28 29 29 30 30 31 32 33 33 34 34 34 35 37 37 38 38 39 40 41 41 42 41 41 41 41 41 41 41 41 41 42 41 41 41 42 42 42 42
25 26 26 27 29 30 29 28 27 28 29 29 29 30 30 31 32 32 33 33 34 35 35 36 37 38 39 39 39 40 42 42 42 41 40 40 40 40 40 40 40 40 40 41 41 41 41 41 41
24 25 26 28 29 30 31 29 28 28 29 29 29 29 30 30 31 32 32 33 34 34 35 36 37 38 39 39 40 40 41 41 41 41 40 40 40 40 40 40 39 38 38 39 39 39 40 40 40
26 25 26 27 29 30 31 30 30 30 30 30 30 30 31 30 31 31 32 33 34 34 35 35 36 37 39 39 40 39 39 39 39 39 40 40 40 39 39 38 37 37 37 37 38 38 38 39 39
Wind_Direction
246 244 242 243 244 245 247 247 248 250 250 250 249 249 249 249 250 252 253 255 258 259 259 260 262 264 266 267 268 268 269 270 271 271 272 272 270 268 267 264 261 259 258 258 256 256 256 255 255
248 247 245 244 245 246 246 246 247 248 249 248 247 248 249 251 252 252 251 253 256 259 261 262 263 264 267 268 269 269 270 270 271 271 272 270 269 268 268 265 262 261 260 260 257 257 256 255 257
249 248 247 247 247 248 248 246 245 246 248 248 248 249 251 253 253 253 253 255 257 259 262 263 263 265 267 269 269 270 271 271 270 270 270 268 268 268 268 266 263 262 261 261 260 259 258 257 258
249 248 248 249 249 249 249 247 245 246 247 248 249 250 252 252 253 254 257 258 259 260 261 263 263 265 266 268 269 270 271 270 267 267 268 268 268 267 267 267 266 264 263 261 260 259 259 259 259
249 248 250 251 252 251 250 250 249 247 248 248 249 251 253 253 254 255 257 259 260 260 261 263 265 266 267 268 269 269 270 269 266 265 266 266 267 267 266 267 265 265 264 262 260 260 260 260 260
250 250 250 252 253 252 250 249 250 249 249 250 250 251 253 255 256 256 259 260 262 263 263 264 265 266 268 269 270 270 269 267 265 266 266 266 266 266 266 266 266 265 263 262 261 260 260 260 260
251 251 252 252 252 252 252 250 250 250 250 251 253 253 254 256 258 259 261 261 262 264 264 265 267 268 268 269 270 271 271 269 267 266 266 266 266 266 266 265 266 265 264 263 262 261 261 260 260
251 251 251 251 252 253 253 252 252 252 252 253 254 254 255 256 259 261 261 262 263 264 264 265 267 268 269 269 269 269 270 270 267 266 266 266 266 266 266 266 267 267 265 264 263 262 261 261 260
251 250 250 251 252 252 253 253 253 254 255 256 257 258 259 259 260 261 261 263 264 264 264 266 268 269 270 270 270 270 270 270 269 269 268 268 267 267 267 267 268 268 267 265 264 264 262 262 261
251 251 252 252 253 253 254 254 254 255 256 257 259 261 262 262 263 263 264 263 264 265 265 266 267 268 269 270 271 271 271 270 270 271 269 268 268 268 268 268 268 268 267 266 266 265 265 264 263
254 254 254 253 253 254 255 255 256 257 258 259 260 261 263 264 264 264 264 264 264 264 265 266 266 268 269 270 271 271 271 271 271 271 269 268 269 269 270 270 269 269 268 267 266 266 266 265 264
256 257 255 255 256 256 257 256 257 259 261 261 262 263 264 264 265 264 264 264 265 265 265 266 267 267 268 270 271 271 271 271 271 271 269 269 270 270 271 271 271 270 269 268 267 266 266 266 264
257 257 257 256 256 257 257 258 259 261 262 262 262 263 265 265 265 265 264 264 265 266 267 268 268 267 268 269 270 271 271 271 271 272 270 269 269 270 271 271 271 271 270 269 268 266 266 265 265
257 257 258 258 257 258 259 260 262 264 264 263 263 264 264 265 265 265 265 266 266 266 267 266 267 268 268 269 269 270 271 271 271 270 270 269 270 270 271 271 271 271 270 270 269 268 266 264 264
258 258 258 260 260 259 260 262 265 265 265 264 264 264 265 265 265 266 267 267 267 267 267 267 268 268 268 269 269 270 271 271 271 271 271 270 271 270 270 270 272 271 271 270 268 267 267 264 263
261 261 261 262 264 264 263 264 265 266 266 265 265 266 266 266 265 266 267 268 268 267 267 268 269 268 268 269 270 270 271 271 272 272 272 272 272 271 270 270 271 271 271 270 269 268 268 266 264
264 264 264 265 266 267 267 267 267 267 267 266 267 267 268 267 267 267 267 268 268 268 268 268 268 268 268 269 269 270 271 271 271 272 272 273 273 272 271 270 270 270 270 270 269 269 268 268 265
268 268 268 268 268 268 269 269 268 268 268 268 269 269 269 269 268 268 268 268 268 268 268 268 268 269 269 269 269 270 271 271 271 272 273 274 274 273 272 271 271 271 270 270 270 270 270 269 268
268 269 270 270 269 269 269 269 269 269 269 269 270 270 270 270 270 269 269 269 268 269 270 270 270 270 269 268 269 269 270 271 271 272 273 274 274 274 272 271 270 270 270 269 269 269 270 270 269
268 269 270 270 269 269 270 270 270 270 271 271 272 272 271 271 271 270 269 269 269 269 269 269 270 270 269 268 268 268 270 271 271 272 274 275 275 275 274 273 272 271 270 270 270 269 270 269 269
269 270 271 272 271 271 272 272 272 272 272 272 272 272 272 271 271 270 270 269 269 269 269 270 270 271 270 268 267 268 269 271 272 274 275 276 276 275 275 274 274 272 271 270 270 269 269 269 269
271 272 273 273 274 274 275 274 273 275 274 273 272 272 271 271 270 270 271 270 270 270 271 271 271 271 271 270 269 269 269 271 272 274 275 276 277 277 276 275 274 274 272 269 268 268 268 268 269
272 273 274 274 275 276 276 277 276 277 275 274 272 272 271 271 271 271 271 271 271 271 271 272 271 271 272 271 270 270 271 272 272 273 275 276 277 277 277 276 275 273 272 270 268 268 267 268 268
273 274 275 275 276 277 278 279 279 279 278 275 273 272 271 271 272 273 272 272 272 271 270 271 271 272 273 272 271 271 272 273 273 274 276 276 277 278 277 276 275 273 272 271 269 269 268 267 267
274 275 276 276 276 278 280 279 280 281 278 276 274 273 272 272 273 273 273 273 272 270 270 271 271 272 273 273 273 273 273 273 274 275 275 276 276 277 277 276 276 274 273 272 270 269 268 267 266
274 275 275 278 279 280 280 280 281 281 279 277 274 274 274 274 274 274 274 274 274 272 271 271 271 271 273 274 275 275 275 275 275 274 274 275 276 277 277 276 276 275 274 274 272 270 269 268 267
275 275 276 278 280 282 281 281 280 281 280 279 278 277 276 276 277 277 277 276 275 273 272 271 272 272 273 275 276 276 275 275 275 275 275 275 276 276 276 276 275 275 275 274 273 272 271 270 270
277 277 276 277 280 282 283 283 284 285 283 281 280 280 279 279 279 279 279 278 277 275 274 273 273 273 273 274 276 277 277 276 275 275 275 275 275 276 276 275 275 275 275 275 274 274 273 271 271
278 277 278 278 279 281 284 285 286 287 287 285 283 283 282 281 279 279 279 279 278 277 275 274 274 274 273 274 276 278 277 276 276 276 276 275 275 276 277 276 276 275 275 275 275 274 274 273 271
275 276 277 277 279 281 284 285 286 287 287 287 285 283 282 281 280 280 280 280 279 278 277 276 276 275 275 275 277 277 277 277 277 277 277 277 276 275 276 276 276 276 275 275 276 276 274 274 272
Height
5826 5827 5828 5830 5831 5831 5832 5833 5834 5834 5834 5835 5835 5836 5836 5838 5839 5842 5841 5839 5839 5839 5840 5840 5840 5840 5840 5840 5840 5840 5840 5840 5840 5839 5840 5840 5840 5840 5839 5839 5839 5840 5840 5840 5840 5840 5841 5841 5842
5822 5823 5825 5826 5826 5827 5829 5830 5830 5830 5830 5831 5832 5832 5833 5834 5835 5835 5835 5835 5835 5836 5836 5836 5836 5836 5837 5837 5837 5836 5836 5836 5836 5836 5836 5836 5836 5836 5836 5835 5836 5836 5837 5837 5837 5837 5838 5838 5838
5818 5819 5821 5821 5822 5823 5825 5826 5826 5826 5826 5827 5828 5829 5829 5830 5831 5831 5831 5832 5832 5832 5832 5832 5833 5833 5833 5833 5833 5833 5832 5832 5831 5832 5832 5832 5832 5832 5832 5832 5832 5832 5833 5833 5834 5834 5834 5834 5834
5814 5815 5816 5817 5818 5820 5820 5821 5822 5822 5823 5823 5824 5825 5825 5826 5827 5827 5827 5828 5828 5828 5828 5828 5828 5829 5829 5829 5829 5828 5827 5826 5826 5827 5828 5828 5828 5828 5828 5828 5828 5829 5829 5829 5829 5830 5830 5830 5830
5809 5810 5811 5812 5813 5815 5816 5816 5817 5818 5818 5819 5820 5820 5821 5822 5822 5823 5823 5823 5823 5823 5823 5824 5824 5824 5824 5824 5824 5824 5823 5821 5821 5823 5823 5823 5824 5824 5824 5824 5824 5824 5824 5825 5825 5825 5825 5826 5826
5804 5805 5806 5807 5808 5809 5810 5811 5812 5813 5814 5814 5815 5816 5816 5817 5817 5818 5818 5818 5818 5818 5818 5819 5819 5819 5819 5819 5819 5819 5818 5818 5817 5818 5818 5818 5818 5818 5818 5818 5818 5818 5819 5819 5819 5820 5820 5820 5820
5799 5800 5800 5802 5803 5804 5806 5806 5807 5807 5808 5809 5810 5811 5811 5812 5812 5812 5812 5813 5813 5813 5813 5813 5813 5813 5813 5813 5813 5813 5813 5813 5812 5812 5812 5812 5812 5812 5812 5812 5812 5812 5812 5813 5813 5814 5814 5814 5814
5793 5795 5795 5796 5797 5799 5800 5800 5801 5802 5803 5804 5804 5805 5806 5807 5807 5807 5807 5807 5807 5807 5807 5807 5807 5807 5807 5807 5807 5807 5807 5806 5806 5806 5806 5806 5806 5806 5806 5805 5805 5805 5805 5806 5806 5807 5807 5807 5808
5787 5789 5789 5791 5792 5793 5794 5795 5795 5796 5797 5798 5798 5799 5800 5800 5801 5801 5801 5801 5801 5801 5800 5800 5800 5800 5800 5800 5800 5800 5800 5799 5799 5799 5799 5799 5799 5798 5799 5798 5798 5798 5798 5798 5799 5799 5800 5800 5800
5781 5782 5784 5785 5786 5787 5788 5789 5790 5790 5791 5792 5792 5792 5793 5793 5794 5794 5794 5794 5794 5794 5794 5794 5793 5793 5793 5793 5793 5793 5793 5792 5792 5792 5791 5791 5791 5791 5791 5790 5790 5790 5790 5790 5791 5791 5791 5792 5792
5775 5776 5778 5778 5779 5780 5781 5782 5783 5784 5785 5786 5786 5786 5786 5786 5787 5786 5786 5786 5786 5786 5786 5786 5787 5786 5786 5786 5786 5786 5785 5785 5785 5784 5784 5783 5783 5783 5782 5782 5782 5781 5781 5781 5782 5782 5782 5783 5783
5769 5770 5771 5772 5772 5773 5774 5775 5776 5777 5778 5779 5779 5779 5779 5779 5779 5779 5779 5779 5779 5779 5779 5779 5779 5779 5779 5779 5779 5778 5778 5777 5777 5776 5775 5775 5775 5774 5774 5773 5773 5773 5772 5772 5772 5773 5773 5773 5774
5763 5764 5764 5765 5766 5766 5767 5768 5769 5770 5771 5771 5771 5771 5771 5771 5772 5771 5771 5771 5772 5772 5771 5771 5771 5771 5771 5771 5771 5771 5770 5770 5769 5768 5767 5767 5766 5766 5765 5764 5764 5763 5763 5763 5763 5763 5763 5764 5764
5756 5757 5757 5758 5759 5759 5760 5761 5762 5763 5763 5763 5763 5763 5763 5764 5763 5763 5763 5764 5764 5763 5763 5763 5763 5763 5763 5763 5763 5762 5762 5761 5761 5760 5759 5758 5758 5757 5756 5756 5755 5754 5753 5753 5753 5753 5753 5753 5754
5750 5751 5751 5751 5752 5752 5753 5754 5755 5755 5755 5755 5755 5756 5756 5756 5755 5755 5755 5755 5755 5755 5755 5755 5755 5755 5755 5755 5754 5754 5753 5753 5752 5751 5750 5749 5749 5748 5747 5746 5745 5744 5744 5744 5743 5743 5742 5743 5743
5743 5744 5745 5745 5745 5745 5748 5748 5748 5747 5747 5747 5747 5747 5747 5747 5747 5747 5747 5746 5746 5746 5746 5746 5746 5746 5746 5745 5745 5744 5744 5743 5743 5742 5741 5740 5739 5738 5737 5736 5735 5734 5734 5733 5733 5732 5732 5732 5732
5737 5738 5738 5739 5738 5738 5739 5740 5741 5740 5740 5739 5739 5739 5739 5739 5739 5738 5738 5737 5737 5737 5737 5737 5736 5736 5736 5736 5735 5735 5734 5733 5733 5732 5731 5730 5729 5728 5727 5726 5725 5724 5723 5723 5723 5722 5722 5721 5721
5731 5731 5732 5732 5732 5732 5732 5733 5733 5732 5732 5731 5731 5731 5730 5730 5730 5729 5729 5728 5728 5727 5727 5727 5726 5726 5726 5726 5725 5725 5724 5723 5723 5722 5721 5720 5718 5717 5716 5715 5715 5714 5713 5712 5712 5711 5710 5710 5710
5724 5724 5724 5725 5724 5724 5724 5725 5725 5724 5724 5723 5723 5722 5722 5721 5721 5720 5720 5719 5719 5718 5718 5717 5717 5716 5716 5716 5716 5715 5714 5713 5712 5711 5710 5709 5708 5706 5705 5704 5704 5702 5701 5701 5700 5699 5699 5698 5698
5717 5717 5717 5717 5716 5716 5716 5716 5716 5716 5715 5715 5714 5713 5713 5712 5712 5712 5711 5710 5710 5709 5708 5708 5707 5706 5706 5705 5705 5705 5704 5703 5702 5701 5700 5698 5697 5695 5694 5693 5692 5691 5689 5689 5688 5687 5687 5686 5685
5710 5710 5710 5709 5708 5708 5707 5708 5709 5708 5707 5706 5705 5704 5704 5703 5703 5702 5702 5701 5700 5700 5699 5698 5697 5697 5696 5695 5695 5694 5694 5693 5692 5690 5689 5687 5685 5684 5682 5681 5679 5678 5677 5676 5676 5675 5674 5674 5673
5703 5702 5702 5701 5700 5700 5700 5699 5701 5700 5699 5697 5696 5695 5694 5694 5693 5692 5692 5692 5691 5690 5689 5688 5687 5686 5685 5684 5684 5684 5683 5682 5681 5680 5678 5676 5674 5672 5670 5669 5667 5665 5664 5663 5663 5662 5662 5662 5661
5695 5695 5694 5693 5692 5692 5691 5690 5693 5691 5690 5689 5687 5686 5685 5684 5683 5683 5682 5682 5681 5680 5680 5679 5677 5676 5675 5674 5673 5673 5672 5671 5670 5668 5666 5664 5662 5660 5658 5656 5655 5653 5652 5651 5650 5650 5649 5649 5649
5688 5687 5686 5685 5684 5684 5684 5681 5683 5683 5681 5680 5678 5677 5676 5675 5674 5673 5672 5672 5671 5670 5670 5669 5667 5666 5665 5664 5663 5662 5661 5659 5658 5656 5654 5652 5650 5648 5646 5644 5642 5641 5639 5638 5638 5637 5636 5636 5636
5681 5680 5679 5677 5676 5676 5676 5673 5675 5674 5672 5670 5669 5668 5667 5666 5665 5664 5663 5662 5661 5660 5659 5658 5657 5656 5655 5653 5652 5651 5649 5648 5646 5644 5642 5641 5638 5636 5634 5632 5630 5628 5627 5625 5625 5624 5624 5623 5623
5673 5673 5672 5670 5668 5668 5667 5666 5668 5666 5664 5662 5661 5660 5658 5657 5656 5654 5653 5651 5650 5649 5648 5648 5646 5645 5644 5642 5641 5639 5638 5636 5634 5632 5630 5628 5626 5624 5622 5620 5618 5616 5615 5613 5612 5612 5611 5611 5611
5665 5665 5664 5662 5660 5659 5659 5658 5659 5658 5656 5654 5653 5651 5650 5648 5647 5645 5643 5641 5640 5639 5638 5637 5636 5634 5633 5631 5630 5628 5626 5625 5623 5621 5619 5617 5615 5613 5611 5608 5606 5605 5603 5602 5601 5600 5600 5599 5599
5658 5657 5656 5654 5652 5650 5651 5651 5651 5649 5647 5646 5644 5642 5641 5639 5637 5635 5634 5632 5630 5629 5627 5626 5625 5623 5622 5621 5619 5617 5615 5613 5611 5609 5607 5605 5603 5601 5599 5597 5595 5593 5592 5590 5590 5589 5588 5587 5587
5651 5650 5648 5647 5645 5643 5642 5645 5643 5640 5638 5637 5635 5633 5632 5630 5628 5626 5624 5622 5620 5619 5617 5616 5614 5612 5611 5610 5608 5606 5604 5601 5599 5598 5596 5594 5592 5590 5588 5586 5584 5583 5581 5580 5578 5577 5577 5576 5575
5643 5643 5641 5641 5639 5637 5635 5638 5635 5632 5630 5628 5627 5625 5622 5620 5619 5617 5615 5612 5610 5609 5607 5605 5603 5601 5600 5598 5596 5594 5592 5590 5588 5586 5585 5583 5581 5579 5577 5575 5574 5572 5571 5570 5568 5567 5566 5565 5564